#timestamp,LO_Frequency,Hit,StdDev 
1576425615.1,286047004.1,N
1576425616.0,286047004.1,N
1576425635.8,286047003.1,N
1576425655.7,286047003.0,N
1576425675.5,286047002.1,N
1576425695.3,286047003.4,N
1576425715.2,286047004.5,N
1576425735.0,286047007.2,Y
1576425735.9,286047007.2,P
1576425755.8,286047005.4,N
1576425775.6,286047003.3,N
1576425795.4,286047003.8,N
1576425815.3,286047005.8,N
1576425835.1,286047007.2,Y
1576425855.9,286047001.3,P
1576425875.7,286047003.5,N
1576425895.5,286046999.7,N
1576425915.4,286047003.1,N
1576425935.2,286047001.3,N
1576425955.0,286047005.8,Y
1576425956.0,286047005.8,P
1576425975.8,286047004.2,N
1576425995.6,286047002.2,N
1576426015.5,286047000.0,N
1576426035.3,286047002.4,N
1576426055.1,286047001.1,N
1576426075.9,286047001.2,N
1576426095.7,286046998.3,N
1576426115.6,286047000.8,N
1576426135.4,286047002.8,N
1576426155.2,286047004.0,N
1576426175.1,286047004.3,N
1576426176.0,286047004.3,N
1576426195.8,286047001.7,N
1576426215.6,286047004.4,N
1576426235.5,286047002.8,N
1576426255.3,286047001.6,N
1576426275.2,286047001.3,N
1576426295.9,286047004.5,N
1576426315.7,286047006.9,Y
1576426335.6,286046999.7,P
1576426355.4,286047000.2,N
1576426375.3,286047002.3,N
1576426395.1,286047000.1,N
1576426396.0,286047000.1,N
1576426415.8,286046999.3,N
1576426435.7,286046996.5,Y
1576426455.5,286046996.8,P
1576426475.3,286046996.0,N
1576426495.2,286046998.9,N
1576426515.0,286046996.9,N
1576426515.9,286046996.9,N
1576426535.8,286046995.4,N
1576426555.6,286046995.0,Y
1576426575.4,286047000.5,P
1576426595.3,286047001.4,N
1576426615.1,286047006.0,P
1576426635.9,286047007.5,N
1576426655.7,286047005.9,N
1576426675.5,286047003.3,N
1576426695.4,286047007.2,N
1576426715.2,286047006.3,N
1576426735.0,286047007.4,N
1576426735.9,286047007.4,N
1576426755.8,286047004.7,N
1576426775.6,286047003.0,N
1576426795.5,286047003.0,N
1576426815.3,286047007.4,N
1576426835.1,286047008.7,N
1576426855.9,286047008.7,N
1576426875.7,286047008.7,N
1576426895.5,286047007.3,N
1576426915.4,286047002.9,N
1576426935.2,286047005.7,N
1576426955.1,286047005.4,N
1576426956.0,286047005.4,N
1576426975.8,286047006.1,N
1576426995.6,286047010.8,Y
1576427015.5,286047003.2,P
1576427035.3,286047003.4,P
1576427055.2,286047004.2,P
1576427075.9,286047005.6,Y
1576427095.7,286046999.5,P
1576427115.6,286047000.4,N
1576427135.4,286046998.2,N
1576427155.2,286047002.7,N
1576427175.1,286047002.4,N
1576427176.0,286047002.4,N
1576427195.8,286047001.9,N
1576427215.7,286047000.7,N
1576427235.5,286047000.1,N
1576427255.3,286047000.2,N
1576427275.2,286047003.7,N
1576427295.0,286047003.0,N
1576427295.9,286047003.0,N
1576427315.8,286047005.8,Y
1576427335.6,286047003.3,P
1576427355.4,286047002.2,N
1576427375.3,286047002.7,P
1576427395.1,286046997.1,Y
1576427415.8,286046993.9,P
1576427435.7,286046994.8,N
1576427455.5,286046991.7,N
1576427475.4,286046990.7,N
1576427495.2,286046987.6,Y
1576427515.0,286046993.0,P
1576427515.9,286046993.0,P
1576427535.8,286046994.7,P
1576427555.6,286046992.8,Y
1576427575.5,286047000.7,P
1576427595.3,286047000.8,N
1576427615.1,286046998.8,N
1576427635.9,286047000.0,N
1576427655.7,286047000.5,N
1576427675.5,286047002.1,N
1576427695.4,286047001.3,N
1576427715.2,286047001.5,N
1576427735.1,286047002.5,N
1576427736.0,286047002.5,N
1576427755.8,286047002.1,N
1576427775.6,286047003.5,N
1576427795.5,286047005.9,N
1576427815.3,286047002.9,N
1576427835.2,286046999.7,N
1576427855.9,286047000.1,N
1576427875.7,286047000.1,N
1576427895.6,286047001.2,N
1576427915.4,286047001.0,N
1576427935.2,286047003.6,N
1576427955.1,286047005.9,N
1576427956.0,286047005.9,N
1576427975.8,286047001.3,N
1576427995.7,286047006.0,N
1576428015.5,286047005.3,N
1576428035.3,286047004.1,N
1576428055.2,286047002.0,N
1576428075.0,286047004.3,N
1576428075.9,286047004.3,N
1576428095.7,286047005.7,N
1576428115.6,286047001.7,N
1576428135.4,286047004.4,N
1576428155.3,286047003.6,N
1576428175.1,286047006.9,Y
1576428195.8,286047005.9,P
1576428215.7,286046999.9,N
1576428235.5,286047000.4,N
1576428255.4,286046999.2,N
1576428275.2,286046999.2,N
1576428295.0,286046997.9,N
1576428295.9,286046997.9,N
1576428315.8,286046993.6,N
1576428335.6,286046993.5,N
1576428355.4,286046993.4,N
1576428375.3,286046996.1,N
1576428395.1,286046995.3,N
1576428415.9,286046994.2,N
1576428435.7,286046994.3,N
1576428455.5,286046995.0,N
1576428475.4,286046995.2,N
1576428495.2,286046997.6,N
1576428515.0,286046997.5,N
1576428516.0,286046997.5,N
1576428535.8,286046996.8,N
1576428555.6,286046997.9,N
1576428575.5,286046996.6,N
1576428595.3,286046999.4,N
1576428615.1,286046997.3,N
1576428635.9,286046998.8,N
1576428655.7,286046997.1,N
1576428675.6,286046998.0,N
1576428695.4,286046996.4,N
1576428715.2,286046993.8,N
1576428735.1,286046997.8,N
1576428736.0,286046997.8,N
1576428755.8,286046997.2,N
1576428775.6,286046995.5,N
1576428795.5,286046995.0,N
1576428815.3,286046996.8,N
1576428835.2,286046996.9,N
1576428855.9,286046997.8,N
1576428875.7,286046997.6,N
1576428895.6,286046997.8,N
1576428915.4,286046998.7,N
1576428935.2,286046998.0,N
1576428955.1,286046995.5,Y
1576428956.0,286046995.5,P
1576428975.8,286047001.0,N
1576428995.7,286047000.9,N
1576429015.5,286047002.1,N
1576429035.3,286047002.6,N
1576429055.2,286046999.8,N
1576429075.0,286046999.9,N
1576429075.9,286046999.9,N
1576429095.7,286047000.3,N
1576429115.6,286047000.6,N
1576429135.4,286047000.2,N
1576429155.3,286047000.8,N
1576429175.1,286047000.7,N
1576429195.8,286046998.6,N
